CST,Max TemperatureF,Mean TemperatureF,Min TemperatureF,Max Dew PointF,MeanDew PointF,Min DewpointF,Max Humidity, Mean Humidity, Min Humidity, Max Sea Level PressureIn, Mean Sea Level PressureIn, Min Sea Level PressureIn, Max VisibilityMiles, Mean VisibilityMiles, Min VisibilityMiles, Max Wind SpeedMPH, Mean Wind SpeedMPH, Max Gust SpeedMPH,PrecipitationIn, CloudCover, Events, WindDirDegrees
2012-11-1,78,64,50,54,49,41,94,62,28,30.24,30.08,29.82,10,9,5,15,3,,0.00,4,,206
2012-11-2,78,64,51,55,48,39,94,58,29,30.21,30.06,29.78,10,9,6,7,1,,0.00,5,,226
2012-11-3,69,62,55,57,55,52,94,75,53,30.22,30.07,29.79,10,6,2,12,3,,0.00,8,,155
2012-11-4,66,62,59,57,55,52,94,83,60,30.24,30.11,29.89,10,8,3,10,7,,0.25,8,Rain,114
2012-11-5,71,64,57,57,54,52,94,74,50,30.25,30.12,29.88,10,9,3,15,3,,0.00,7,,101
2012-11-6,78,63,48,54,48,39,100,64,24,30.28,30.12,29.89,10,9,6,10,3,,0.00,5,,95
2012-11-7,78,62,46,45,39,28,87,50,18,30.32,30.16,29.92,15,12,8,12,2,,0.00,1,,94
2012-11-8,77,59,41,45,39,23,93,52,19,30.30,30.13,29.88,12,11,10,7,1,,0.00,1,,102
2012-11-9,80,62,44,48,43,34,93,55,20,30.24,30.09,29.84,12,10,7,7,2,,0.00,0,,65
2012-11-10,80,64,48,50,46,37,93,55,28,30.21,30.07,29.79,10,10,7,9,3,,0.00,2,,225
2012-11-11,80,64,48,54,39,12,94,48,13,30.23,30.06,29.82,12,10,7,8,2,,0.00,2,,260
2012-11-12,78,63,48,59,42,12,100,51,18,30.27,30.10,29.86,12,7,1,14,3,,0.00,1,,123
2012-11-13,75,62,50,50,48,46,87,62,36,30.33,30.16,29.89,12,10,8,7,2,,0.00,2,,123
2012-11-14,78,62,46,50,48,41,94,63,26,30.34,30.17,29.93,10,10,8,10,2,,0.00,2,,160
2012-11-15,78,64,50,50,48,45,88,60,30,30.33,30.15,29.88,10,10,7,12,3,,0.00,3,,300
2012-11-16,82,65,48,52,47,41,94,59,23,30.27,30.11,29.86,10,8,6,16,1,,0.00,1,,12
2012-11-17,80,68,55,50,47,43,82,56,28,30.34,30.15,29.86,12,10,8,14,3,,0.00,2,,125
2012-11-18,80,65,50,55,46,30,88,55,16,30.33,30.16,29.89,12,11,10,10,3,,0.00,0,,240
2012-11-19,82,65,48,55,47,37,100,62,20,30.30,30.13,29.86,12,9,1,9,2,,0.00,0,,170
2012-11-20,82,62,42,45,37,27,100,47,15,30.29,30.12,29.86,12,11,10,12,1,,0.00,4,,121
2012-11-21,75,60,44,48,41,37,76,53,29,30.32,30.16,29.97,10,9,6,7,1,,0.00,5,,332
2012-11-22,77,62,46,52,46,43,100,61,29,30.30,30.14,29.91,8,7,5,10,3,,0.00,3,,270
2012-11-23,77,64,50,52,49,45,94,64,32,30.27,30.12,29.89,8,6,3,7,2,,0.00,5,,141
2012-11-24,75,63,51,48,45,43,82,56,31,30.32,30.14,29.87,10,9,6,16,4,,0.00,4,,124
2012-11-25,75,60,44,45,41,37,81,55,25,30.26,30.10,29.88,12,11,10,7,1,,0.00,3,,48
2012-11-26,77,62,48,54,47,43,87,63,34,30.27,30.11,29.90,10,8,4,15,2,,0.00,2,,261
2012-11-27,78,63,48,50,46,41,94,60,26,30.34,30.16,29.90,10,7,3,9,1,,0.00,3,,287
2012-11-28,78,63,48,46,45,41,82,57,26,30.40,30.20,29.93,10,9,5,12,3,,0.00,1,,168
2012-11-29,78,63,48,52,46,43,93,57,28,30.32,30.15,29.88,10,8,6,14,4,,0.00,1,,149
2012-11-30,80,63,46,48,43,36,87,53,21,30.29,30.12,29.86,10,10,8,9,1,,0.00,1,,138